Other Public Products
Issued by NWS Grand Forks, ND

Home | Current Version | Previous Version | Graphics & Text | Print | Product List | Glossary On
Versions: 1 2 3 4 5 6 7 8 9 10 11 12 13 14 15 16 17 18 19 20 21 22 23 24 25 26 27 28 29 30 31 32 33 34 35 36 37 38 39 40 41 42 43 44 45 46 47 48 49 50
000
FPUS83 KFGF 020731
OPUFGF
PRAIRIE TO PINES WEATHER ROUNDUP
NATIONAL WEATHER SERVICE EASTERN NORTH DAKOTA/GRAND FORKS ND
200 AM CDT TUE SEP 02 2014

 **SATELLITE DATA USED TO AUGMENT SKY COVER AT AUTOMATED STATIONS**
 *****  WEATHER ACROSS EASTERN NORTH DAKOTA  *****

CITY           SKY/WX    TMP DP  RH WIND       PRES   REMARKS
GRAND FORKS    CLEAR     53  49  86 SW8       29.75F
GRAND FORKS AF CLEAR     53  52  97 W7        29.76F
GRAND CITY NWS   N/A     52 N/A N/A W3          N/A
BUXTON         NOT AVBL
DEVILS LAKE    CLEAR     57  48  72 W10       29.77S
FARGO          CLEAR     55  52  89 SW9       29.81R
WAHPETON ARPT  MOSUNNY   52  48  87 S5        29.84S
$$

 *****  WEATHER ACROSS CENTRAL AND WESTERN NORTH DAKOTA  *****

CITY           SKY/WX    TMP DP  RH WIND       PRES   REMARKS
JAMESTOWN      CLEAR     54  48  80 W5        29.83S
BISMARCK       CLEAR     54  50  86 W5        29.86F
MINOT          PTCLDY    54  48  80 SW9       29.79F
MINOT AFB      MOCLDY    52  50  91 SW7       29.79F
GARRISON         N/A     55  53  93 CALM      29.83S
WILLISTON      CLOUDY    57  50  77 S3        29.81F
DICKINSON      PTCLDY    52  46  80 S10       29.86F
HETTINGER      CLEAR     51  45  79 CALM      29.92F
$$

 *****  OTHER OBSERVATIONS NORTHEAST NORTH DAKOTA  *****

CITY           SKY/WX    TMP DP  RH WIND       PRES   REMARKS
WALHALLA       FAIR      55  50  82 W7        29.74S
LANGDON        FAIR      48  46  93 W7        29.77R
CAVALIER       FAIR      55  48  76 W7        29.74S
GRAFTON        FAIR      50  48  93 SW3       29.75S
CANDO          FAIR      48  46  93 W7        29.79S
FORT TOTTEN    NOT AVBL
ROLLA          FAIR      46  46 100 SW7       29.79F
RUGBY          FAIR      46  46 100 CALM      29.79F
 ***** THE ABOVE OBSERVATIONS ARE NON NWS ARE NOT QUALITY
        CONTROLLED AND MAY MIS-REPORT RAIN FOR SNOW...
$$

 *****  OTHER OBSERVATIONS SOUTHEAST NORTH DAKOTA *****

CITY           SKY/WX    TMP DP  RH WIND       PRES   REMARKS
COOPERSTOWN    NOT AVBL
VALLEY CITY    FAIR      50  50 100 S5        29.83F
OAKES            N/A     55  54  94 SW5       29.86S
GWINNER        SUNNY     55  55 100 CALM      29.86S
BUFFALO          N/A     53  49  86 SW7         N/A
WYNDMERE       NOT AVBL
 ***** THE ABOVE OBSERVATIONS ARE NON NWS ARE NOT QUALITY
       CONTROLLED AND MAY MIS-REPORT RAIN FOR SNOW...
$$

  *****  WEATHER ACROSS NORTHERN MINNESOTA  *****

CITY           SKY/WX    TMP DP  RH WIND       PRES   REMARKS
FLAG ISLAND    CLEAR     57  52  82 W14       29.69S
WARROAD        CLEAR     54  48  82 SW7       29.73F
ROSEAU           N/A     54  48  82 SW6       29.73S
HALLOCK        PTCLDY    48  46  93 CALM      29.73F
THF RVR FALLS  CLEAR     52  50  93 S3        29.77S
HALSTAD          N/A     52  50  94 SW7         N/A
FOSSTON        CLEAR     46  46 100 S6        29.80S
BAUDETTE       CLEAR     54  51  90 W3        29.72S
WASKISH        CLEAR     59  57  94 SW13      29.75F
CROOKSTON      CLEAR     52  50  93 S5        29.77F
$$
  *****  WEATHER ACROSS CENTRAL AND WEST MINNESOTA  *****

CITY           SKY/WX    TMP DP  RH WIND       PRES   REMARKS
BEMIDJI        PTCLDY    52  49  90 SW5       29.78S
PARK RAPIDS    MOCLDY    51  50  96 CALM      29.81S
WADENA         CLOUDY    54  52  94 W6        29.82S
DETROIT LAKES  PTCLDY    55  54  94 SW5       29.83S
MOORHEAD       PTCLDY    55  55 100 SW5       29.82S
FERGUS FALLS   MOCLDY    54  52  94 SW3       29.84S
ELBOW LAKE     FAIR      55  53  95 W3        29.84S
MORRIS MN      CLOUDY    57  55  94 W7        29.84S
STAPLES        CLOUDY    52  52 100 CALM      29.82S
WHEATON        MOCLDY    54  52  94 CALM      29.87S
$$
  *****  WEATHER ELSEWHERE ACROSS MINNESOTA  *****

CITY           SKY/WX    TMP DP  RH WIND       PRES   REMARKS
DULUTH         CLEAR     57  51  80 NW9       29.77S
INTRNTL FALLS  CLEAR     49  47  93 SW6       29.73S
ELY            PTCLDY    52  50  93 CALM      29.75S
CLOQUET        CLEAR     54  50  87 W6        29.79R
BRAINERD       MOCLDY    55  53  93 W5        29.82R
HIBBING        CLEAR     46  44  93 SW3       29.77S FOG
ALEXANDRIA     CLOUDY    58  56  93 SW7       29.85R
SAINT CLOUD    CLOUDY    61  55  81 CALM      29.81F
MINNEAPOLIS    PTCLDY    65  59  81 CALM      29.82S
$$

  *****  WEATHER ACROSS SOUTH DAKOTA  *****

CITY           SKY/WX    TMP DP  RH WIND       PRES   REMARKS
SIOUX FALLS    CLOUDY    62  55  77 W7        29.89R
BROOKINGS      NOT AVBL
WATERTOWN      CLOUDY    54  52  93 W6        29.88S
HURON          MOCLDY    56  54  93 SW5       29.89R
SISSETON         N/A     58  55  90 W6        29.85R
ABERDEEN       PTCLDY    50  50 100 W5        29.88R
MITCHELL       CLOUDY    60  56  86 W7        29.92S
PIERRE         CLEAR     56  52  86 W8        29.92S
MOBRIDGE       CLEAR     50  49  96 N3        29.88F
RAPID CITY     CLEAR     45  42  89 CALM      30.00S
$$

  *****  SOME WEATHER IN NEARBY STATES *****

CITY           SKY/WX    TMP DP  RH WIND       PRES   REMARKS
GLASGOW MT     MOCLDY    61  48  62 SW10      29.79S
GREAT FALLS MT CLEAR     48  37  65 SW7       29.92S
CHEYENNE WY    CLEAR     46  41  82 W7        30.17F
SCOTTSBLUFF NE CLEAR     48  45  89 E5        30.08F
OMAHA NE       MOCLDY    63  58  83 N3        29.95F
DES MOINES IA  PTCLDY    66  62  87 NW3       29.91R
DAVENPORT IA   FOG       62  60  93 W5        29.89R VSB 1/2
CHICAGO IL     LGT RAIN  70  65  84 SW3       29.83F
EAU CLAIRE WI  CLEAR     59  58  96 S6        29.82S
LA CROSSE WI   CLEAR     63  60  90 S6        29.85S
$$

  *****  SOME NATIONAL WEATHER *****

CITY           SKY/WX    TMP DP  RH WIND       PRES   REMARKS
LA GUARDIA NY  CLEAR     80  73  79 S6        29.91F
RALEIGH NC     PTCLDY    76  71  85 SW8       30.05F
ATLANTA GA     PTCLDY    73  70  90 CALM      30.09F
NEW ORLEANS LA PTCLDY    80  75  84 S6        30.00F
OKLAHOMA CITY  MOCLDY    81  67  62 S15       29.84S
ALBUQUERQUE NM CLEAR     75  39  27 CALM      30.08S
SALT LAKE CITY CLEAR     63  36  36 S9        30.04S
LOS ANGELES CA MOCLDY    70  64  83 S3        29.83S
BOISE ID       CLEAR     61  34  36 SE8       29.98S
SEATTLE WA     MOCLDY    64  53  67 NE5       29.99F
$$

*** WEATHER ACROSS MANITOBA...SASKATCHEWAN AND ONTARIO ***
                ***ONTARIO***

CITY           SKY/WX    TMP DP  RH WIND       PRES   REMARKS
GERALDTON      CLEAR     55  55 100 SW5       29.60R
THUNDER BAY    PTCLDY    54  54 100 W5        29.69R
SIOUX LOOKOUT  PTCLDY    55  52  88 W8        29.64S
TORONTO        CLEAR     70  66  88 W9        29.79S
BIG TROUT LK   MOCLDY    54  52  94 NW5       29.46F
PICKLE LAKE    NOT AVBL
DRYDEN         CLEAR     52  50  93 SW7       29.67S
KENORA         CLEAR     55  52  88 W8        29.68S
$$
                *** MANITOBA***

CITY           SKY/WX    TMP DP  RH WIND       PRES   REMARKS
BRANDON        CLEAR     46  45  93 W7        29.75S
DAUPHIN        CLEAR     50  46  87 W7        29.68S
ISLAND LAKE    PTCLDY    54  52  94 CALM      29.55S
PILOT MOUND      N/A     48  46  93 W5          N/A
THE PAS        PTCLDY    54  48  82 W6        29.58F
THOMPSON       PTCLDY    46  46 100 W3        29.51S
WINNIPEG       CLEAR     52  48  87 SW8       29.71S
CHURCHILL      FOG       50  50 100 E7        29.49S VSB 1/4
GILLAM         CLOUDY    48  48 100 SW2       29.48S
$$
                ***SASKATCHEWAN***

CITY           SKY/WX    TMP DP  RH WIND       PRES   REMARKS
ESTEVAN        CLOUDY    55  50  82 NE2       29.78
KINDERSLEY     MOCLDY    50  48  93 CALM      29.74F
LLOYDMINSTER   CLOUDY    50  45  81 W8        29.71S
PRINCE ALBERT  MOCLDY    52  50  93 W3        29.66F
REGINA         MOCLDY    55  46  71 NW3       29.73F
YORKTON        CLOUDY    55  46  71 SW8       29.70S
N. BATTLEFORD  LGT RAIN  52  48  87 W8        29.72F



USA.gov is the U.S. government's official web portal to all federal, state and local government web resources and services.